Location: Street
(51.1247°N, 2.7429°W)
Time: 10:49:45
(UTC+00:00)

Tiros 1 - Pass Details

Date: 02 December 2020
Orbit: 630 x 663 km, 48.4° (Epoch: 21 January)

Event Time Altitude Azimuth Distance (km) Brightness Sun altitude
Rises 19:50:22 0° 279° (W) 2,990 11.6 -34.1°
Reaches altitude 10° 19:53:06 10° 266° (W) 2,070 10.5 -34.5°
Enters shadow 19:55:12 19° 243° (WSW) 1,539 9.5 -34.9°
Maximum altitude 19:56:50 23° 214° (SW) 1,379 - -35.1°
Drops below altitude 10° 20:00:33 10° 162° (SSE) 2,047 - -35.7°
Sets 20:03:14 0° 148° (SSE) 2,948 - -36.1°
